| time (UTC) | temp F | wind direction | speed MPH | gust MPH | rain 1hr in | rain 24hr in | rain mn in | humidity % | barometer mb |
| 20260505040005 | 45 | 203 | 0.0 | 2.0 | 0.00 | 0.09 | 0.00 | 84 | 1019.5 |
| 20260505033004 | 45 | 203 | 0.0 | 2.0 | 0.00 | 0.09 | 0.00 | 84 | 1019.7 |
| 20260505030004 | 45 | 203 | 0.0 | 2.0 | 0.00 | 0.09 | 0.00 | 84 | 1020.2 |
| 20260505023004 | 45 | 203 | 0.0 | 2.0 | 0.00 | 0.09 | 0.00 | 84 | 1020.6 |
| 20260505020004 | 45 | 203 | 0.0 | 2.0 | 0.00 | 0.09 | 0.00 | 84 | 1020.9 |
| 20260505013004 | 45 | 203 | 0.0 | 2.0 | 0.00 | 0.09 | 0.00 | 84 | 1021.2 |
| 20260505010004 | 45 | 203 | 0.0 | 2.0 | 0.00 | 0.09 | 0.00 | 84 | 1021.2 |
| 20260505003004 | 45 | 203 | 0.0 | 2.0 | 0.00 | 0.09 | 0.00 | 84 | 1021.2 |
| 20260505000010 | 45 | 203 | 0.0 | 2.0 | 0.00 | 0.09 | 0.00 | 84 | 1021.2 |
| 20260504233003 | 45 | 203 | 0.0 | 2.0 | 0.00 | 0.09 | 0.00 | 84 | 1021.2 |
| 20260504230004 | 45 | 203 | 0.0 | 2.0 | 0.00 | 0.09 | 0.00 | 84 | 1021.0 |
| 20260504223004 | 45 | 203 | 0.0 | 2.0 | 0.00 | 0.09 | 0.00 | 84 | 1020.7 |
| 20260504220004 | 45 | 203 | 0.0 | 2.0 | 0.00 | 0.09 | 0.00 | 84 | 1020.6 |
| 20260504213004 | 45 | 203 | 0.0 | 2.0 | 0.00 | 0.09 | 0.00 | 84 | 1020.1 |
| 20260504210004 | 45 | 203 | 0.0 | 2.0 | 0.00 | 0.09 | 0.00 | 84 | 1019.6 |
| 20260504203003 | 45 | 203 | 1.0 | 2.0 | 0.00 | 0.09 | 0.00 | 83 | 1019.1 |
| 20260504200004 | 44 | 202 | 1.0 | 2.0 | 0.00 | 0.09 | 0.00 | 85 | 1018.8 |
| 20260504193004 | 43 | 203 | 1.0 | 2.0 | 0.00 | 0.09 | 0.00 | 96 | 1018.2 |
| 20260504190004 | 43 | 202 | 0.0 | 2.0 | 0.00 | 0.09 | 0.00 | 97 | 1018.0 |
| 20260504183004 | 43 | 202 | 0.0 | 2.0 | 0.00 | 0.09 | 0.00 | 97 | 1017.7 |
| 20260504180004 | 43 | 202 | 1.0 | 4.0 | 0.00 | 0.09 | 0.00 | 99 | 1017.3 |
| 20260504173004 | 43 | 203 | 1.0 | 6.0 | 0.00 | 0.13 | 0.00 | 98 | 1017.2 |
| 20260504050004 | 64 | 203 | 2.0 | 4.0 | 0.00 | 1.95 | 0.07 | 69 | 1007.0 |